Home   Weather   Latakia   Past weeks
Flag for Syria

Past Weather in Latakia, Syria — Yesterday and Last 2 Weeks

Now
61 °F

Passing clouds.


Feels Like: 61 °F
Forecast: 69 / 56 °F
Wind: 21 mph from West

Location: Lattakia Airport

Current Time: Apr 3, 2020 at 11:40:16 pm

Latest Report: Apr 3, 2020 at 9:00 pm


Visibility: N/A

Pressure: 30.01 "Hg

Humidity: 77%

Dew Point: 54 °F

Location of LatakiaLocation

Past Weather in Latakia — Graph

°F

Latakia Temperature Yesterday

Maximum temperature yesterday: 64 °F (at 11:00 am)
Minimum temperature yesterday: 59 °F (at 11:00 pm)
Average temperature yesterday: 62 °F

High & Low Weather Summary for the Past Weeks

 TemperatureHumidityPressure
High75 °F (Mar 27, 2:00 pm)94% (Mar 23, 6:00 am)30.07 "Hg (Mar 23, 6:00 am)
Low41 °F (Mar 20, 2:00 am)38% (Mar 24, 12:00 pm)29.65 "Hg (Mar 31, 5:00 pm)
Average59 °F72%29.88 "Hg
* Reported Mar 19 8:00 pm — Apr 3 9:00 pm, Latakia. Weather by CustomWeather, © 2020

Note: Actual official high and low records may vary slightly from our data, if they occured in-between our weather recording intervals... More about our weather records

Latakia Weather History for the Previous 24 Hours

Scroll right to see more
 ConditionsComfort  
Time TempWeatherWind HumidityBarometerVisibility
9:00 pm
Fri, Apr 3
61 °FPassing clouds.21 mph77%30.01 "HgN/A
8:00 pm63 °FPassing clouds.21 mph83%29.98 "HgN/A
7:00 pm63 °FPassing clouds.23 mph77%29.98 "HgN/A
6:00 pm63 °FScattered clouds.23 mph83%29.98 "HgN/A
5:00 pm64 °FScattered clouds.23 mph73%29.95 "HgN/A
4:00 pm64 °FScattered clouds.18 mph73%29.98 "HgN/A
3:00 pm64 °FBroken clouds.17 mph73%29.98 "HgN/A
1:00 pm64 °FBroken clouds.17 mph73%29.98 "Hg5 mi
12:00 pm63 °FBroken clouds.17 mph77%29.98 "Hg4 mi
11:00 am61 °FScattered clouds.17 mph83%30.01 "Hg4 mi
10:00 am61 °FRain. Broken clouds.17 mph77%29.98 "Hg2 mi
8:51 am63 °FMild.No wind77%29.98 "HgN/A
8:00 am61 °FPassing clouds.17 mph83%29.95 "Hg5 mi
7:00 am61 °FBroken clouds.17 mph77%29.95 "Hg5 mi
6:00 am61 °FPassing clouds.9 mph72%29.95 "HgN/A
5:00 am59 °FPassing clouds.7 mph77%29.95 "HgN/A
2:00 am59 °FPassing clouds.7 mph82%29.98 "HgN/A
1:00 am59 °FPassing clouds.7 mph82%29.98 "HgN/A
12:00 am57 °FPassing clouds.5 mph94%29.98 "HgN/A
11:00 pm
Thu, Apr 2
59 °FPassing clouds.5 mph82%29.98 "HgN/A
Weather by CustomWeather, © 2020

See weather overview

Advertising